TimeEDT,TemperatureF,Dew PointF,Humidity,Sea Level PressureIn,VisibilityMPH,Wind Direction,Wind SpeedMPH,Gust SpeedMPH,PrecipitationIn,Events,Conditions,WindDirDegrees,DateUTC
12:15 AM,50.0,37.4,62,29.83,10.0,NW,10.4,18.4,N/A,,Clear,310,2012-10-29 04:15:00
12:35 AM,50.0,37.4,62,29.83,10.0,NW,8.1,18.4,N/A,,Clear,320,2012-10-29 04:35:00
12:55 AM,50.0,37.4,62,29.83,10.0,NW,9.2,16.1,N/A,,Clear,320,2012-10-29 04:55:00
1:15 AM,50.0,37.4,62,29.83,10.0,NW,10.4,16.1,N/A,,Clear,320,2012-10-29 05:15:00
1:35 AM,48.2,37.4,66,29.83,10.0,NW,6.9,-,N/A,,Clear,320,2012-10-29 05:35:00
1:55 AM,48.2,37.4,66,29.83,10.0,NW,8.1,-,N/A,,Clear,320,2012-10-29 05:55:00
2:15 AM,48.2,35.6,62,29.83,10.0,NW,8.1,-,N/A,,Clear,320,2012-10-29 06:15:00
2:35 AM,48.2,35.6,62,29.83,10.0,NNW,9.2,19.6,N/A,,Clear,330,2012-10-29 06:35:00
2:55 AM,46.4,35.6,66,29.82,10.0,NW,9.2,16.1,N/A,,Clear,320,2012-10-29 06:55:00
3:15 AM,46.4,35.6,66,29.81,10.0,NW,9.2,17.3,N/A,,Clear,310,2012-10-29 07:15:00
3:35 AM,46.4,35.6,66,29.81,10.0,NW,9.2,18.4,N/A,,Clear,320,2012-10-29 07:35:00
3:55 AM,46.4,35.6,66,29.81,10.0,NW,10.4,-,N/A,,Clear,310,2012-10-29 07:55:00
4:15 AM,46.4,35.6,66,29.80,10.0,NW,9.2,16.1,N/A,,Clear,310,2012-10-29 08:15:00
4:35 AM,46.4,35.6,66,29.80,10.0,NW,9.2,16.1,N/A,,Clear,320,2012-10-29 08:35:00
4:55 AM,46.4,35.6,66,29.80,10.0,NW,9.2,-,N/A,,Clear,320,2012-10-29 08:55:00
5:15 AM,46.4,35.6,66,29.81,10.0,NW,9.2,16.1,N/A,,Clear,320,2012-10-29 09:15:00
5:35 AM,46.4,35.6,66,29.81,10.0,NW,10.4,-,N/A,,Clear,320,2012-10-29 09:35:00
6:15 AM,46.4,35.6,66,29.81,10.0,NW,11.5,18.4,N/A,,Clear,320,2012-10-29 10:15:00
6:55 AM,46.4,33.8,62,29.81,10.0,NW,10.4,17.3,N/A,,Clear,320,2012-10-29 10:55:00
7:15 AM,46.4,33.8,62,29.82,10.0,NW,11.5,-,N/A,,Clear,320,2012-10-29 11:15:00
7:35 AM,46.4,33.8,62,29.82,10.0,NW,11.5,-,N/A,,Clear,320,2012-10-29 11:35:00
7:55 AM,46.4,33.8,62,29.82,10.0,NW,9.2,18.4,N/A,,Clear,320,2012-10-29 11:55:00
8:15 AM,46.4,33.8,62,29.84,10.0,NW,10.4,-,N/A,,Clear,320,2012-10-29 12:15:00
8:35 AM,46.4,33.8,62,29.84,10.0,NW,8.1,21.9,N/A,,Clear,320,2012-10-29 12:35:00
8:55 AM,50.0,33.8,54,29.84,10.0,NW,13.8,17.3,N/A,,Clear,320,2012-10-29 12:55:00
9:15 AM,50.0,33.8,54,29.85,10.0,NW,10.4,19.6,N/A,,Clear,320,2012-10-29 13:15:00
9:35 AM,51.8,33.8,50,29.85,10.0,NW,16.1,20.7,N/A,,Clear,310,2012-10-29 13:35:00
9:55 AM,53.6,33.8,47,29.84,10.0,NNW,12.7,24.2,N/A,,Clear,330,2012-10-29 13:55:00
10:15 AM,53.6,32.0,44,29.84,10.0,NW,20.7,24.2,N/A,,Clear,320,2012-10-29 14:15:00
10:35 AM,53.6,32.0,44,29.84,10.0,NW,18.4,28.8,N/A,,Clear,320,2012-10-29 14:35:00
10:55 AM,55.4,32.0,41,29.83,10.0,NW,16.1,24.2,N/A,,Clear,320,2012-10-29 14:55:00
11:15 AM,55.4,32.0,41,29.83,10.0,NNW,13.8,24.2,N/A,,Clear,340,2012-10-29 15:15:00
11:35 AM,59.0,32.0,36,29.83,10.0,NNW,16.1,21.9,N/A,,Clear,330,2012-10-29 15:35:00
11:55 AM,59.0,30.2,34,29.82,10.0,NNW,16.1,25.3,N/A,,Clear,330,2012-10-29 15:55:00
12:15 PM,59.0,30.2,34,29.81,10.0,WNW,13.8,20.7,N/A,,Clear,300,2012-10-29 16:15:00
12:35 PM,60.8,28.4,29,29.81,10.0,NW,13.8,21.9,N/A,,Clear,310,2012-10-29 16:35:00
12:55 PM,60.8,28.4,29,29.79,10.0,NW,11.5,24.2,N/A,,Clear,320,2012-10-29 16:55:00
1:15 PM,60.8,26.6,27,29.78,10.0,NNW,19.6,25.3,N/A,,Clear,330,2012-10-29 17:15:00
1:35 PM,60.8,26.6,27,29.77,10.0,NW,17.3,27.6,N/A,,Clear,320,2012-10-29 17:35:00
1:55 PM,62.6,26.6,26,29.76,10.0,NW,18.4,29.9,N/A,,Clear,310,2012-10-29 17:55:00
2:15 PM,62.6,24.8,24,29.75,10.0,NNW,15.0,27.6,N/A,,Clear,340,2012-10-29 18:15:00
2:35 PM,62.6,26.6,26,29.74,10.0,NW,13.8,29.9,N/A,,Clear,320,2012-10-29 18:35:00
2:55 PM,62.6,24.8,24,29.74,10.0,NW,17.3,26.5,N/A,,Clear,310,2012-10-29 18:55:00
3:15 PM,62.6,23.0,22,29.73,10.0,NNW,17.3,32.2,N/A,,Clear,330,2012-10-29 19:15:00
3:35 PM,62.6,23.0,22,29.73,10.0,NW,15.0,28.8,N/A,,Clear,320,2012-10-29 19:35:00
3:55 PM,62.6,23.0,22,29.73,10.0,NW,17.3,31.1,N/A,,Clear,320,2012-10-29 19:55:00
4:15 PM,62.6,23.0,22,29.73,10.0,NW,16.1,32.2,N/A,,Clear,310,2012-10-29 20:15:00
4:35 PM,62.6,23.0,22,29.72,10.0,NNW,19.6,24.2,N/A,,Clear,330,2012-10-29 20:35:00
4:55 PM,60.8,21.2,22,29.73,10.0,NW,19.6,31.1,N/A,,Clear,310,2012-10-29 20:55:00
5:15 PM,60.8,21.2,22,29.73,10.0,NW,19.6,26.5,N/A,,Clear,320,2012-10-29 21:15:00
5:35 PM,59.0,21.2,23,29.73,10.0,NW,17.3,32.2,N/A,,Clear,310,2012-10-29 21:35:00
5:55 PM,59.0,23.0,25,29.73,10.0,NNW,16.1,28.8,N/A,,Clear,330,2012-10-29 21:55:00
6:15 PM,57.2,23.0,27,29.74,10.0,NW,17.3,33.4,N/A,,Clear,320,2012-10-29 22:15:00
6:35 PM,55.4,26.6,33,29.75,10.0,NW,12.7,28.8,N/A,,Clear,320,2012-10-29 22:35:00
6:55 PM,53.6,26.6,35,29.76,10.0,NW,13.8,28.8,N/A,,Clear,320,2012-10-29 22:55:00
7:15 PM,53.6,28.4,38,29.76,10.0,NW,12.7,20.7,N/A,,Clear,320,2012-10-29 23:15:00
7:35 PM,53.6,28.4,38,29.76,10.0,NW,15.0,21.9,N/A,,Clear,320,2012-10-29 23:35:00
7:55 PM,53.6,28.4,38,29.77,10.0,NW,10.4,25.3,N/A,,Clear,320,2012-10-29 23:55:00
8:15 PM,53.6,28.4,38,29.77,10.0,NW,12.7,20.7,N/A,,Clear,320,2012-10-30 00:15:00
8:35 PM,51.8,28.4,41,29.76,10.0,NW,12.7,18.4,N/A,,Clear,320,2012-10-30 00:35:00
11:35 PM,50.0,23.0,35,29.76,10.0,NW,11.5,17.3,N/A,,Clear,310,2012-10-30 03:35:00
11:55 PM,50.0,23.0,35,29.76,10.0,NW,11.5,17.3,N/A,,Clear,310,2012-10-30 03:55:00